Latest Coastal Weather Observations for Northern Endeavour (near 10.5S 126E)

IDD60701

Issued at 3:21 pm CST Saturday 5 September 2015 (issued every 10 minutes, with the page automatically refreshed every 10 minutes)

About coastal observations | Map of coastal stations | Coastal observations for NT | Marine services | Other Formats
Station Details ID: 200212 Name: NORTHERN ENDEAVOUR Lat: -10.61 Lon: 125.98 Height: 16.0 m
Data from the previous 72 hours. | See also: Recent months for locations in Northern Territory
Date/Time
CST
Temp

°C
Wind Pressure Rain
since 9am
mm
Weather Cloud Vis
km
Sea
Height
m
Swell
Dir
 
Speed
knots
Gust
knots
hPa Trend Height
m
Period
s
Dir
05/03:20pm 28.1 S 2 4 1014.7 - - - Partly cloudy 10 - - - -
05/03:10pm 28.1 S 2 6 1014.8 - - - Partly cloudy 10 - - - -
05/03:00pm 28.0 SE 2 4 1014.9 - - - Partly cloudy 10 - - - -
05/02:50pm 28.1 S 3 4 1014.9 - - - Partly cloudy 10 - - - -
05/02:40pm 28.2 SE 2 3 1015.0 - - - - 10 - - - -
05/02:30pm 28.4 SSE 3 2 1015.0 - - - - 10 - - - -
05/02:20pm 28.3 SE 3 5 1015.0 - - - - 10 - - - -
05/02:10pm 27.9 SSE 2 3 1015.2 - - - - 10 - - - -
05/02:00pm 28.7 SE 2 4 1015.3 - - - - 10 - - - -
05/01:50pm 28.8 E 2 4 1015.5 - - - - 10 - - - -
05/01:40pm 28.1 E 3 3 1015.6 - - - - 10 - - - -
05/01:30pm 28.2 SSE 1 3 1015.8 - - - - 10 - - - -
05/01:20pm 27.8 N 1 3 1015.9 - - - Partly cloudy 10 - - - -
05/01:10pm 26.8 NNW 1 2 1016.1 - - - - 10 - - - -
05/01:00pm 27.2 NNE 1 2 1016.3 - - - - 10 - - - -
05/12:50pm 26.8 NNE 2 2 1016.4 - - - - 10 - - - -
05/12:40pm 27.1 ENE 2 4 1016.6 - - - - 10 - - - -
05/12:30pm 27.1 ENE 3 3 1016.7 - - - - 10 - - - -
05/12:20pm 27.0 ENE 3 4 1016.9 - - - - 10 - - - -
05/12:10pm 27.1 ENE 3 4 1017.1 - - - - 10 - - - -
05/12:00pm 27.2 E 4 5 1017.3 - - - - 10 - - - -
05/11:50am 27.0 ENE 4 5 1017.5 - - - - 10 - - - -
05/11:40am 27.1 E 4 6 1017.6 - - - - 10 - - - -
05/11:30am 27.0 ENE 4 4 1017.6 - - - - 10 - - - -
05/11:20am 26.8 E 4 5 1017.7 - - - - 10 - - - -
05/11:10am 27.2 E 3 5 1017.8 - - - - 10 - - - -
05/11:00am 26.9 E 3 4 1017.8 - - - - 10 - - - -
05/10:50am 28.0 ENE 2 4 1017.8 - - - - 10 - - - -
05/10:40am 28.0 ENE 2 2 1017.7 - - - - 10 - - - -
05/10:30am 28.8 ESE 2 3 1017.7 - - - - 10 - - - -
05/10:20am 28.8 ESE 3 4 1017.7 - - - - 10 - - - -
05/10:10am 28.5 ESE 2 3 1017.7 - - - - 10 - - - -
05/10:00am 28.1 ESE 2 3 1017.6 - - - - 10 - - - -
05/09:50am 27.9 E 3 3 1017.5 - - - - 10 - - - -
05/09:40am 27.8 E 2 4 1017.5 - - - - 10 - - - -
05/09:30am 27.8 ESE 2 3 1017.4 - - - - 10 - - - -
05/09:20am 28.0 ESE 2 4 1017.3 - - - - 10 - - - -
05/09:10am 27.7 E 3 4 1017.3 - - - - 10 - - - -
05/09:00am 27.5 ESE 3 4 1017.2 - - - - 10 - - - -
05/08:50am 27.5 SE 3 5 1017.2 - - - - 10 - - - -
05/08:40am 27.3 SE 3 4 1017.1 - - - - 10 - - - -
05/08:30am 27.6 ESE 3 5 1017.1 - - - - 10 - - - -
05/08:20am 27.0 E 2 4 1016.9 - - - - 10 - - - -
05/08:10am 26.7 E 3 3 1016.8 - - - - 10 - - - -
05/08:00am 26.9 E 3 4 1016.7 - - - - 10 - - - -
05/07:50am 26.5 E 3 3 1016.6 - - - - 10 - - - -
05/07:40am 26.3 ESE 3 4 1016.5 - - - - 10 - - - -
05/07:30am 26.3 E 3 3 1016.3 - - - - 10 - - - -
05/07:20am 26.2 ESE 4 4 1016.2 - - - - 10 - - - -
05/07:10am 26.1 ESE 4 5 1016.0 - - - - 10 - - - -
05/07:00am 26.1 ESE 3 5 1015.8 - - - - 10 - - - -
05/06:50am 26.0 ESE 3 3 1015.7 - - - - 10 - - - -
05/06:40am 26.0 E 3 4 1015.6 - - - - 10 - - - -
05/06:30am 26.0 ENE 2 3 1015.4 - - - - 10 - - - -
05/06:20am 26.0 ENE 2 2 1015.3 - - - - 10 - - - -
05/06:10am 26.1 E 2 3 1015.2 - - - - 10 - - - -
05/06:00am 26.0 ESE 2 3 1015.1 - - - - 10 - - - -
05/05:50am 26.0 SE 3 3 1015.0 - - - - 10 - - - -
05/05:40am 26.1 E 2 3 1015.0 - - - - 10 - - - -
05/05:30am 26.1 E 2 3 1014.9 - - - - 10 - - - -
05/05:20am 26.1 ENE 2 3 1014.8 - - - - 10 - - - -
05/05:10am 26.1 ENE 2 2 1014.7 - - - - 10 - - - -
05/05:00am 26.1 ENE 2 3 1014.6 - - - - 10 - - - -
05/04:50am 26.1 ENE 2 2 1014.6 - - - - 10 - - - -
05/04:40am 26.1 E 1 2 1014.5 - - - - 10 - - - -
05/04:30am 26.1 ENE 1 2 1014.4 - - - - 10 - - - -
05/04:20am 26.2 ENE 1 2 1014.5 - - - - 10 - - - -
05/04:10am 26.2 E 2 2 1014.5 - - - - 10 - - - -
05/04:00am 26.2 E 2 3 1014.4 - - - - 10 - - - -
05/03:50am 26.2 ENE 2 3 1014.5 - - - - 10 - - - -
05/03:40am 26.2 NNE 3 3 1014.5 - - - - 10 - - - -
05/03:30am 26.2 ESE 2 3 1014.6 - - - - 10 - - - -
05/03:20am 26.2 ESE 3 3 1014.7 - - - - 10 - - - -
05/03:10am 26.2 ESE 3 3 1014.8 - - - - 10 - - - -
05/03:00am 26.2 SE 4 3 1014.9 - - - - 10 - - - -
05/02:50am 26.3 SE 5 5 1015.0 - - - - 10 - - - -
05/02:40am 26.3 SE 5 6 1015.1 - - - - 10 - - - -
05/02:30am 26.3 ESE 4 4 1015.3 - - - - 10 - - - -
05/02:20am 26.4 SE 4 5 1015.4 - - - - 10 - - - -
05/02:10am 26.3 SE 5 6 1015.5 - - - - 10 - - - -
05/02:00am 26.3 ESE 6 7 1015.7 - - - - 10 - - - -
05/01:50am 26.4 ESE 6 8 1015.8 - - - - 10 - - - -
05/01:40am 26.4 ESE 6 7 1016.0 - - - - 10 - - - -
05/01:30am 26.5 ESE 5 6 1016.2 - - - - 10 - - - -
05/01:20am 26.4 ESE 5 5 1016.4 - - - - 10 - - - -
05/01:10am 26.4 ESE 6 7 1016.7 - - - - 10 - - - -
05/01:00am 26.5 ESE 5 7 1016.8 - - - - 10 - - - -
05/12:50am 26.5 ESE 6 6 1016.9 - - - - 10 - - - -
05/12:40am 26.6 SE 6 7 1017.0 - - - - 10 - - - -
05/12:30am 26.6 SE 6 7 1017.0 - - - - 10 - - - -
05/12:20am 26.6 SE 7 8 1017.0 - - - - 10 - - - -
05/12:10am 26.6 SE 7 10 1017.1 - - - - 10 - - - -
05/12:00am 26.6 ESE 6 8 1017.2 - - - - 10 - - - -
 
Date/Time
CST
Temp

°C
Wind Pressure Rain
since 9am
mm
Weather Cloud Vis
km
Sea
Height
m
Swell
Dir
 
Speed
knots
Gust
knots
hPa Trend Height
m
Period
s
Dir
04/11:50pm 26.6 SE 6 9 1017.1 - - - - 10 - - - -
04/11:40pm 26.6 ESE 6 9 1017.1 - - - - 10 - - - -
04/11:30pm 26.7 SE 4 4 1017.2 - - - Partly cloudy 10 - - - -
04/11:20pm 26.7 SE 6 9 1017.2 - - - Partly cloudy 10 - - - -
04/11:10pm 26.7 SE 4 7 1017.3 - - - Partly cloudy 10 - - - -
04/11:00pm 26.8 SE 3 5 1017.3 - - - Partly cloudy 10 - - - -
04/10:50pm 26.6 ESE 6 7 1017.3 - - - Partly cloudy 10 - - - -
04/10:40pm 26.7 SE 6 9 1017.3 - - - Partly cloudy 10 - - - -
04/10:30pm 26.7 SE 5 8 1017.3 - - - Partly cloudy 10 - - - -
04/10:20pm 26.7 SSE 5 9 1017.2 - - - Partly cloudy 10 - - - -
04/10:10pm 26.8 S 5 10 1017.2 - - - - 10 - - - -
04/10:00pm 26.7 SSE 4 6 1017.1 - - - - 10 - - - -
04/09:50pm 26.7 SSE 6 7 1017.1 - - - - 10 - - - -
04/09:40pm 26.8 S 6 9 1017.1 - - - - 10 - - - -
04/09:30pm 26.8 SSE 5 7 1017.0 - - - - 10 - - - -
04/09:20pm 26.8 S 5 8 1016.8 - - - - 10 - - - -
04/09:10pm 26.9 S 4 5 1016.7 - - - - 10 - - - -
04/09:00pm 26.9 S 5 5 1016.6 - - - - 10 - - - -
04/08:50pm 27.0 SSW 6 10 1016.4 - - - - 10 - - - -
04/08:40pm 26.9 SSW 5 11 1016.3 - - - - 10 - - - -
04/08:30pm 27.0 S 5 11 1016.2 - - - - 10 - - - -
04/08:20pm 26.9 SW 6 6 1016.0 - - - - 10 - - - -
04/08:10pm 27.1 SSW 5 10 1015.9 - - - - 10 - - - -
04/08:00pm 27.2 SSW 5 7 1015.8 - - - - 10 - - - -
04/07:50pm 27.2 S 6 9 1015.7 - - - - 10 - - - -
04/07:40pm 27.2 S 6 7 1015.6 - - - - 10 - - - -
04/07:30pm 27.5 SSW 5 9 1015.5 - - - - 10 - - - -
04/07:20pm 27.8 SSW 7 8 1015.4 - - - - 10 - - - -
04/07:10pm 27.8 SSW 7 7 1015.3 - - - - 10 - - - -
04/07:00pm 28.1 SSW 6 9 1015.2 - - - - 10 - - - -
04/06:50pm 28.3 SSW 5 6 1015.2 - - - - 10 - - - -
04/06:40pm 28.4 SSW 6 8 1015.1 - - - - 10 - - - -
04/06:30pm 28.4 SSW 5 4 1015.0 - - - - 10 - - - -
04/06:20pm 28.7 SSW 6 6 1014.9 - - - - 10 - - - -
04/06:10pm 28.8 SSW 6 7 1014.8 - - - Partly cloudy 10 - - - -
04/06:00pm 28.4 SSW 6 8 1014.8 - - - - 10 - - - -
04/05:50pm 28.5 SSW 6 7 1014.8 - - - - 10 - - - -
04/05:40pm 29.4 SW 7 8 1014.6 - - - - 10 - - - -
04/05:30pm 29.6 SSW 6 9 1014.6 - - - Partly cloudy 10 - - - -
04/05:20pm 29.1 SSW 6 7 1014.6 - - - Partly cloudy 10 - - - -
04/05:10pm 28.7 SSW 6 8 1014.5 - - - Partly cloudy 10 - - - -
04/05:00pm 28.4 SSW 4 6 1014.4 - - - Partly cloudy 10 - - - -
04/04:50pm 28.8 S 3 6 1014.3 - - - Partly cloudy 10 - - - -
04/04:40pm 27.9 SSE 2 3 1014.3 - - - Partly cloudy 10 - - - -
04/04:30pm 28.8 SSW 2 4 1014.3 - - - Partly cloudy 10 - - - -
04/04:20pm 29.3 SW 3 3 1014.4 - - - Partly cloudy 10 - - - -
04/04:10pm 29.3 SW 1 3 1014.4 - - - Cloudy 10 - - - -
04/04:00pm 29.5 WSW 2 3 1014.5 - - - Partly cloudy 10 - - - -
04/03:50pm 29.2 W 1 3 1014.5 - - - Partly cloudy 10 - - - -
04/03:40pm 27.7 NNW 1 3 1014.6 - - - Partly cloudy 10 - - - -
04/03:30pm 28.0 NNW 1 3 1014.7 - - - Partly cloudy 10 - - - -
04/03:20pm 28.1 N 1 2 1014.8 - - - Partly cloudy 10 - - - -
04/03:10pm 27.8 NNW 1 1 1014.9 - - - Partly cloudy 10 - - - -
04/03:00pm 28.4 NNW 1 2 1014.9 - - - Partly cloudy 10 - - - -
04/02:50pm 27.7 NNE 2 4 1015.0 - - - - 10 - - - -
04/02:40pm 27.2 E 2 3 1015.2 - - - - 10 - - - -
04/02:30pm 26.9 ENE 2 3 1015.3 - - - - 10 - - - -
04/02:20pm 26.9 NNE 2 2 1015.4 - - - - 10 - - - -
04/02:10pm 26.9 ENE 3 2 1015.5 - - - - 10 - - - -
04/02:00pm 26.7 E 3 3 1015.7 - - - - 10 - - - -
04/01:50pm 26.7 E 2 3 1015.8 - - - Partly cloudy 10 - - - -
04/01:40pm 27.0 ENE 2 3 1015.9 - - - Partly cloudy 10 - - - -
04/01:30pm 27.9 ESE 2 3 1016.0 - - - Partly cloudy 10 - - - -
04/01:20pm 28.2 SSE 2 3 1016.1 - - - Partly cloudy 10 - - - -
04/01:10pm 27.4 NE 1 2 1016.3 - - - Partly cloudy 10 - - - -
04/01:00pm 27.4 S 1 1 1016.5 - - - Partly cloudy 10 - - - -
04/12:50pm 27.3 NNE 1 2 1016.5 - - - Partly cloudy 10 - - - -
04/12:40pm 26.7 NE 2 3 1016.7 - - - Partly cloudy 10 - - - -
04/12:30pm 26.7 ENE 3 3 1016.8 - - - Partly cloudy 10 - - - -
04/12:20pm 26.8 ESE 3 3 1017.0 - - - Partly cloudy 10 - - - -
04/12:10pm 27.2 E 2 3 1017.1 - - - Partly cloudy 10 - - - -
04/12:00pm 28.0 E 2 3 1017.2 - - - Partly cloudy 10 - - - -
04/11:50am 27.9 W 1 2 1017.3 - - - Cloudy 10 - - - -
04/11:40am 27.4 W 1 2 1017.4 - - - Cloudy 10 - - - -
04/11:30am 26.7 W 1 1 1017.5 - - - Cloudy 10 - - - -
04/11:20am 26.7 WSW 1 2 1017.6 - - - Cloudy 10 - - - -
04/11:10am 28.5 WSW 2 2 1017.6 - - - Partly cloudy 10 - - - -
04/11:00am 29.0 SW 2 3 1017.6 - - - Partly cloudy 10 - - - -
04/10:50am 28.9 SSW 2 4 1017.7 - - - Partly cloudy 10 - - - -
04/10:40am 29.1 SSW 2 3 1017.8 - - - Partly cloudy 10 - - - -
04/10:30am 28.1 SW 4 3 1017.8 - - - Partly cloudy 10 - - - -
04/10:20am 28.4 SW 4 4 1017.8 - - - Partly cloudy 10 - - - -
04/10:10am 28.8 SW 4 5 1017.8 - - - Partly cloudy 10 - - - -
04/10:00am 28.9 SW 4 6 1017.7 - - - Partly cloudy 10 - - - -
04/09:50am 28.5 SW 4 5 1017.6 - - - Partly cloudy 10 - - - -
04/09:40am 27.9 SW 5 6 1017.5 - - - - 10 - - - -
04/09:30am 28.1 SW 5 8 1017.4 - - - - 10 - - - -
04/09:20am 28.2 SW 5 6 1017.3 - - - - 10 - - - -
04/09:10am 27.8 SW 5 6 1017.1 - - - - 10 - - - -
04/09:00am 28.5 SW 6 9 1017.0 - - - - 10 - - - -
04/08:50am 28.2 SW 6 10 1016.9 - - - - 10 - - - -
04/08:40am 27.8 SW 6 12 1016.8 - - - - 10 - - - -
04/08:30am 27.8 SW 6 11 1016.8 - - - - 10 - - - -
04/08:20am 27.7 SW 8 11 1016.7 - - - - 10 - - - -
04/08:10am 27.3 SW 8 11 1016.6 - - - Partly cloudy 10 - - - -
04/08:00am 27.2 SSW 6 12 1016.5 - - - Partly cloudy 10 - - - -
04/07:50am 26.7 SW 6 7 1016.5 - - - Partly cloudy 10 - - - -
04/07:40am 26.2 SW 8 10 1016.4 - - - Partly cloudy 10 - - - -
04/07:30am 25.9 SSW 8 10 1016.4 - - - Partly cloudy 10 - - - -
04/07:20am 25.7 SW 8 12 1016.2 - - - Partly cloudy 10 - - - -
04/07:10am 25.6 SSW 8 11 1016.1 - - - - 10 - - - -
04/07:00am 25.5 SW 8 9 1016.0 - - - - 10 - - - -
04/06:50am 25.6 SW 7 10 1015.9 - - - - 10 - - - -
04/06:40am 25.5 SW 7 8 1015.7 - - - - 10 - - - -
04/06:30am 25.5 SW 7 8 1015.5 - - - - 10 - - - -
04/06:20am 25.5 SW 6 7 1015.4 - - - - 10 - - - -
04/06:10am 25.5 SW 6 8 1015.3 - - - - 10 - - - -
04/06:00am 25.5 SW 6 8 1015.2 - - - - 10 - - - -
04/05:50am 25.4 SW 6 7 1015.1 - - - - 10 - - - -
04/05:40am 25.5 SSW 5 7 1015.0 - - - - 10 - - - -
04/05:30am 25.5 SW 6 7 1014.9 - - - - 10 - - - -
04/05:20am 25.4 SW 5 5 1014.8 - - - - 10 - - - -
04/05:10am 25.5 SW 6 7 1014.8 - - - - 10 - - - -
04/05:00am 25.5 SW 5 7 1014.8 - - - - 10 - - - -
04/04:50am 25.5 SW 4 5 1014.8 - - - - 10 - - - -
04/04:40am 25.5 SW 3 5 1014.7 - - - - 10 - - - -
04/04:30am 25.5 SW 4 4 1014.7 - - - - 10 - - - -
04/04:20am 25.5 SW 4 5 1014.7 - - - - 10 - - - -
04/04:10am 25.6 SSW 4 4 1014.7 - - - - 10 - - - -
04/04:00am 25.6 SSW 3 4 1014.6 - - - - 10 - - - -
04/03:50am 25.6 SSW 3 3 1014.7 - - - - 10 - - - -
04/03:40am 25.6 SSW 3 5 1014.6 - - - - 10 - - - -
04/03:30am 25.6 SSW 3 4 1014.7 - - - - 10 - - - -
04/03:20am 25.6 SSW 4 4 1014.8 - - - - 10 - - - -
04/03:10am 25.7 SSW 3 4 1014.9 - - - - 10 - - - -
04/03:00am 25.7 S 4 4 1015.1 - - - - 10 - - - -
04/02:50am 25.7 SSW 5 5 1015.1 - - - - 10 - - - -
04/02:40am 25.7 SSW 5 6 1015.3 - - - - 10 - - - -
04/02:30am 25.8 SSW 4 6 1015.4 - - - - 10 - - - -
04/02:20am 25.8 SSW 6 7 1015.5 - - - - 10 - - - -
04/02:10am 25.8 SSW 6 7 1015.6 - - - - 10 - - - -
04/02:00am 25.8 SSW 6 7 1015.7 - - - - 10 - - - -
04/01:50am 25.9 SSW 6 6 1015.8 - - - - 10 - - - -
04/01:40am 25.9 SSW 7 8 1015.9 - - - - 10 - - - -
04/01:30am 25.9 SSW 7 6 1016.0 - - - - 10 - - - -
04/01:20am 26.0 SW 7 7 1016.1 - - - - 10 - - - -
04/01:10am 26.0 SSW 7 9 1016.2 - - - - 10 - - - -
04/01:00am 26.0 SSW 7 8 1016.3 - - - - 10 - - - -
04/12:50am 26.1 SSW 7 9 1016.5 - - - - 10 - - - -
04/12:40am 26.1 S 8 9 1016.6 - - - - 10 - - - -
04/12:30am 26.1 S 7 9 1016.7 - - - - 10 - - - -
04/12:20am 26.1 SSW 7 8 1016.9 - - - - 10 - - - -
04/12:10am 26.1 SSW 7 7 1016.9 - - - - 10 - - - -
04/12:00am 26.1 SSW 8 8 1017.0 - - - - 10 - - - -
 
Date/Time
CST
Temp

°C
Wind Pressure Rain
since 9am
mm
Weather Cloud Vis
km
Sea
Height
m
Swell
Dir
 
Speed
knots
Gust
knots
hPa Trend Height
m
Period
s
Dir
03/11:50pm 26.1 SSW 8 10 1017.0 - - - - 10 - - - -
03/11:40pm 26.3 SSW 7 9 1017.0 - - - - 10 - - - -
03/11:30pm 26.3 SSW 7 9 1017.0 - - - - 10 - - - -
03/11:20pm 26.3 SSW 8 11 1017.0 - - - - 10 - - - -
03/11:10pm 26.2 SSW 8 8 1017.0 - - - - 10 - - - -
03/11:00pm 26.2 SSW 8 8 1016.9 - - - - 10 - - - -
03/10:50pm 26.1 SSW 8 8 1016.8 - - - - 10 - - - -
03/10:40pm 26.2 SSW 8 8 1016.8 - - - - 10 - - - -
03/10:30pm 26.2 SSW 7 8 1016.7 - - - - 10 - - - -
03/10:20pm 26.2 SSW 7 8 1016.7 - - - - 10 - - - -
03/10:10pm 26.2 SSW 7 8 1016.7 - - - - 10 - - - -
03/10:00pm 26.3 SSW 7 8 1016.7 - - - - 10 - - - -
03/09:50pm 26.2 SSW 7 8 1016.6 - - - - 10 - - - -
03/09:40pm 26.1 SW 7 8 1016.5 - - - - 10 - - - -
03/09:30pm 26.2 SW 7 8 1016.5 - - - - 10 - - - -
03/09:20pm 26.2 SW 7 8 1016.3 - - - - 10 - - - -
03/09:10pm 26.3 SW 7 8 1016.3 - - - - 10 - - - -
03/09:00pm 26.3 SW 8 8 1016.2 - - - - 10 - - - -
03/08:50pm 26.4 SW 8 11 1016.1 - - - - 10 - - - -
03/08:40pm 26.4 SW 8 9 1016.1 - - - - 10 - - - -
03/08:30pm 26.5 SSW 9 9 1016.0 - - - - 10 - - - -
03/08:20pm 26.5 SW 8 8 1015.9 - - - - 10 - - - -
03/08:10pm 26.6 SSW 10 12 1015.8 - - - Partly cloudy 10 - - - -
03/08:00pm 26.7 SSW 8 12 1015.7 - - - Partly cloudy 10 - - - -
03/07:50pm 26.7 S 5 6 1015.5 - - - Partly cloudy 10 - - - -
03/07:40pm 26.7 SSW 7 9 1015.3 - - - - 10 - - - -
03/07:30pm 26.8 SSW 6 12 1015.1 - - - - 10 - - - -
03/07:20pm 26.8 SW 7 7 1015.0 - - - - 10 - - - -
03/07:10pm 27.0 SSW 6 6 1014.9 - - - - 10 - - - -
03/07:00pm 27.2 SSW 6 9 1014.8 - - - - 10 - - - -
03/06:50pm 27.3 SSW 5 8 1014.8 - - - - 10 - - - -
03/06:40pm 27.6 SSW 5 8 1014.7 - - - - 10 - - - -
03/06:30pm 28.1 SSW 7 10 1014.6 - - - - 10 - - - -
03/06:20pm 27.7 S 6 8 1014.6 - - - - 10 - - - -
03/06:10pm 27.9 SSW 7 9 1014.5 - - - Partly cloudy 10 - - - -
03/06:00pm 28.3 SSW 7 8 1014.5 - - - Partly cloudy 10 - - - -
03/05:50pm 28.0 SSW 7 9 1014.5 - - - Partly cloudy 10 - - - -
03/05:40pm 28.0 SSW 7 8 1014.5 - - - Partly cloudy 10 - - - -
03/05:30pm 27.6 SSW 6 7 1014.5 - - - Partly cloudy 10 - - - -
03/05:20pm 27.1 S 6 6 1014.4 - - - Partly cloudy 10 - - - -
03/05:10pm 26.9 S 6 8 1014.4 - - - Partly cloudy 10 - - - -
03/05:00pm 27.6 SW 7 9 1014.4 - - - Partly cloudy 10 - - - -
03/04:50pm 28.0 SSW 7 8 1014.4 - - - Partly cloudy 10 - - - -
03/04:40pm 28.6 SSW 7 7 1014.5 - - - Partly cloudy 10 - - - -
03/04:30pm 28.2 SSW 7 7 1014.5 - - - Partly cloudy 10 - - - -
03/04:20pm 28.1 SSW 6 7 1014.5 - - - Partly cloudy 10 - - - -
03/04:10pm 28.4 SSW 7 8 1014.5 - - - Partly cloudy 10 - - - -
03/04:00pm 28.3 SSW 6 6 1014.6 - - - - 10 - - - -
03/03:50pm 27.4 SSW 5 6 1014.7 - - - Partly cloudy 10 - - - -
03/03:40pm 29.8 SSW 6 5 1014.9 - - - Partly cloudy 10 - - - -
03/03:30pm 28.1 S 5 7 1014.9 - - - Partly cloudy 10 - - - -
03/03:20pm 27.3 S 5 7 1014.9 - - - Partly cloudy 10 - - - -
03/03:10pm 28.4 S 6 7 1014.9 - - - - 10 - - - -
03/03:00pm 27.9 SSW 7 9 1015.0 - - - Partly cloudy 10 - - - -
03/02:50pm 27.4 SSW 7 8 1015.1 - - - - 10 - - - -
03/02:40pm 26.5 SSW 7 8 1015.2 - - - Partly cloudy 10 - - - -
03/02:30pm 26.4 SSW 6 9 1015.2 - - - - 10 - - - -
03/02:20pm 26.1 SSW 5 6 1015.3 - - - Partly cloudy 10 - - - -
03/02:10pm 26.2 SSW 6 7 1015.4 - - - - 10 - - - -
03/02:00pm 26.2 SSW 6 7 1015.6 - - - - 10 - - - -
03/01:50pm 26.2 SSW 6 9 1015.6 - - - - 10 - - - -
03/01:40pm 26.0 SSW 5 8 1015.7 - - - - 10 - - - -
03/01:30pm 26.1 SSW 5 5 1015.8 - - - - 10 - - - -
03/01:20pm 26.4 SSW 6 6 1016.0 - - - - 10 - - - -
03/01:10pm 26.4 SSW 6 7 1016.0 - - - - 10 - - - -
03/01:00pm 26.5 SSW 6 8 1016.3 - - - - 10 - - - -
03/12:50pm 26.5 S 5 6 1016.4 - - - - 10 - - - -
03/12:40pm 26.5 S 6 7 1016.6 - - - - 10 - - - -
03/12:30pm 27.2 SSW 6 8 1016.7 - - - - 10 - - - -
03/12:20pm 28.3 SW 6 7 1016.9 - - - - 10 - - - -
03/12:10pm 28.8 SW 6 7 1017.0 - - - - 10 - - - -
03/12:00pm 28.9 SW 6 9 1017.2 - - - - 10 - - - -
03/11:50am 29.2 SW 6 7 1017.3 - - - - 10 - - - -
03/11:40am 29.3 SW 7 9 1017.4 - - - - 10 - - - -
03/11:30am 29.8 SW 6 8 1017.6 - - - - 10 - - - -
03/11:20am 29.3 SSW 6 9 1017.7 - - - - 10 - - - -
03/11:10am 28.7 SSW 8 12 1017.8 - - - - 10 - - - -
03/11:00am 28.2 SSW 7 11 1017.7 - - - - 10 - - - -
03/10:50am 28.1 SSW 8 9 1017.9 - - - - 10 - - - -
03/10:40am 28.2 SSW 8 9 1017.8 - - - - 10 - - - -
03/10:30am 28.1 SSW 7 7 1017.8 - - - - 10 - - - -
03/10:20am 27.7 SW 7 8 1017.8 - - - - 10 - - - -
03/10:10am 27.9 SW 8 9 1017.7 - - - - 10 - - - -
03/10:00am 27.3 SW 7 9 1017.6 - - - - 10 - - - -
03/09:50am 26.7 WSW 8 9 1017.5 - - - - 10 - - - -
03/09:40am 27.0 SW 8 10 1017.3 - - - - 10 - - - -
03/09:30am 27.1 SW 8 10 1017.4 - - - - 10 - - - -
03/09:20am 27.3 SW 9 9 1017.2 - - - - 10 - - - -
03/09:10am 27.1 SW 9 9 1017.1 - - - - 10 - - - -
03/09:00am 27.0 WSW 8 9 1016.9 - - - - 10 - - - -
03/08:50am 26.5 WSW 6 7 1016.9 - - - - 10 - - - -
03/08:40am 26.5 WSW 6 6 1017.0 - - - - 10 - - - -
03/08:30am 26.6 WSW 6 7 1017.0 - - - - 10 - - - -
03/08:20am 26.8 SW 7 8 1016.8 - - - - 10 - - - -
03/08:10am 26.5 WSW 6 6 1016.8 - - - - 10 - - - -
03/08:00am 26.4 WSW 7 7 1016.6 - - - - 10 - - - -
03/07:50am 26.3 SW 7 8 1016.5 - - - - 10 - - - -
03/07:40am 26.4 SW 7 8 1016.5 - - - - 10 - - - -
03/07:30am 26.2 SW 7 12 1016.5 - - - - 10 - - - -
03/07:20am 26.0 SW 7 11 1016.4 - - - - 10 - - - -
03/07:10am 25.9 SW 6 10 1016.3 - - - - 10 - - - -
03/07:00am 25.9 SW 7 7 1016.1 - - - - 10 - - - -
03/06:50am 25.9 SW 6 8 1016.0 - - - - 10 - - - -
03/06:40am 25.9 SSW 6 8 1015.9 - - - - 10 - - - -
03/06:30am 25.9 SSW 7 9 1015.7 - - - - 10 - - - -
03/06:20am 25.7 SSW 7 8 1015.6 - - - - 10 - - - -
03/06:10am 25.7 S 6 8 1015.6 - - - - 10 - - - -
03/06:00am 25.7 SSW 6 9 1015.6 - - - - 10 - - - -
03/05:50am 25.7 SW 6 9 1015.5 - - - - 10 - - - -
03/05:40am 25.7 SW 5 7 1015.4 - - - - 10 - - - -
03/05:30am 25.7 SSW 5 6 1015.4 - - - - 10 - - - -
03/05:20am 25.7 SSW 6 8 1015.3 - - - - 10 - - - -
03/05:10am 25.8 SW 7 7 1015.2 - - - - 10 - - - -
03/05:00am 25.8 SSW 6 7 1015.3 - - - - 10 - - - -
03/04:50am 25.8 SSW 6 7 1015.3 - - - - 10 - - - -
03/04:40am 25.8 SSW 5 8 1015.2 - - - - 10 - - - -
03/04:30am 25.7 SW 6 6 1015.2 - - - - 10 - - - -
03/04:20am 25.8 SSW 6 6 1015.1 - - - - 10 - - - -
03/04:10am 25.8 SSW 7 7 1015.2 - - - - 10 - - - -
03/04:00am 25.8 S 7 9 1015.1 - - - - 10 - - - -
03/03:50am 25.9 S 7 7 1015.1 - - - - 10 - - - -
03/03:40am 25.9 S 8 9 1015.1 - - - Partly cloudy 10 - - - -
03/03:30am 25.9 S 8 10 1015.2 - - - Partly cloudy 10 - - - -
03/03:20am 25.9 S 6 8 1015.3 - - - Partly cloudy 10 - - - -
03/03:10am 25.9 S 6 8 1015.3 - - - Partly cloudy 10 - - - -
03/03:00am 25.9 S 5 7 1015.3 - - - Partly cloudy 10 - - - -
03/02:50am 26.0 S 7 9 1015.4 - - - Partly cloudy 10 - - - -
03/02:40am 26.0 S 6 8 1015.4 - - - Partly cloudy 10 - - - -
03/02:30am 25.9 S 7 9 1015.4 - - - Partly cloudy 10 - - - -
03/02:20am 26.0 S 8 9 1015.5 - - - Partly cloudy 10 - - - -
03/02:10am 26.0 S 8 9 1015.6 - - - Partly cloudy 10 - - - -
03/02:00am 26.0 S 7 10 1015.6 - - - Partly cloudy 10 - - - -
03/01:50am 26.0 S 7 9 1015.8 - - - Partly cloudy 10 - - - -
03/01:40am 26.1 S 7 10 1015.8 - - - - 10 - - - -
03/01:30am 26.1 S 7 8 1015.8 - - - - 10 - - - -
03/01:20am 26.1 S 8 8 1015.9 - - - - 10 - - - -
03/01:10am 26.1 S 10 11 1015.9 - - - - 10 - - - -
03/01:00am 26.1 S 9 10 1015.9 - - - Partly cloudy 10 - - - -
03/12:50am 26.1 S 8 12 1016.1 - - - - 10 - - - -
03/12:40am 26.0 S 8 9 1016.2 - - - - 10 - - - -
03/12:30am 26.1 S 9 11 1016.3 - - - - 10 - - - -
03/12:20am 26.2 S 10 11 1016.3 - - - - 10 - - - -
03/12:10am 26.1 S 11 11 1016.3 - - - - 10 - - - -
03/12:00am 26.5 S 11 13 1016.2 - - - - 10 - - - -
 
Date/Time
CST
Temp

°C
Wind Pressure Rain
since 9am
mm
Weather Cloud Vis
km
Sea
Height
m
Swell
Dir
 
Speed
knots
Gust
knots
hPa Trend Height
m
Period
s
Dir
02/11:50pm 26.6 S 11 13 1016.3 - - - - 10 - - - -
02/11:40pm 26.6 S 11 13 1016.3 - - - - 10 - - - -
02/11:30pm 26.6 S 11 13 1016.2 - - - - 10 - - - -
02/11:20pm 26.6 S 12 12 1016.2 - - - - 10 - - - -
02/11:10pm 26.5 S 11 13 1016.3 - - - - 10 - - - -
02/11:00pm 26.6 S 11 14 1016.2 - - - - 10 - - - -
02/10:50pm 26.5 S 11 12 1016.2 - - - - 10 - - - -
02/10:40pm 26.6 S 11 12 1016.2 - - - - 10 - - - -
02/10:30pm 26.6 S 11 12 1016.1 - - - - 10 - - - -
02/10:20pm 26.6 S 11 12 1016.1 - - - - 10 - - - -
02/10:10pm 26.6 S 11 12 1016.0 - - - Partly cloudy 10 - - - -
02/10:00pm 26.6 S 11 12 1016.1 - - - Partly cloudy 10 - - - -
02/09:50pm 26.5 S 10 12 1016.0 - - - Partly cloudy 10 - - - -
02/09:40pm 26.4 S 10 12 1016.0 - - - - 10 - - - -
02/09:30pm 26.5 S 10 10 1015.8 - - - - 10 - - - -
02/09:20pm 26.6 S 9 12 1015.8 - - - - 10 - - - -
02/09:10pm 26.6 S 10 13 1015.6 - - - - 10 - - - -
02/09:00pm 26.6 S 9 11 1015.6 - - - - 10 - - - -
02/08:50pm 26.5 S 9 11 1015.5 - - - - 10 - - - -
02/08:40pm 26.7 S 10 11 1015.5 - - - - 10 - - - -
02/08:30pm 26.7 S 8 13 1015.4 - - - - 10 - - - -
02/08:20pm 26.7 S 8 11 1015.2 - - - - 10 - - - -
02/08:10pm 26.7 S 8 10 1015.0 - - - - 10 - - - -
02/08:00pm 26.8 S 7 10 1014.9 - - - - 10 - - - -
02/07:50pm 26.9 S 7 11 1014.7 - - - - 10 - - - -
02/07:40pm 26.9 S 7 9 1014.6 - - - - 10 - - - -
02/07:30pm 27.1 S 7 8 1014.5 - - - - 10 - - - -
02/07:20pm 27.1 S 7 10 1014.4 - - - - 10 - - - -
02/07:10pm 27.2 S 7 11 1014.4 - - - - 10 - - - -
02/07:00pm 27.7 S 8 8 1014.2 - - - - 10 - - - -
02/06:50pm 27.9 S 8 10 1014.2 - - - - 10 - - - -
02/06:40pm 28.0 S 8 12 1014.1 - - - - 10 - - - -
02/06:30pm 28.2 S 8 11 1013.9 - - - Partly cloudy 10 - - - -
02/06:20pm 28.5 S 8 10 1013.9 - - - Partly cloudy 10 - - - -
02/06:10pm 28.7 S 8 11 1013.9 - - - Partly cloudy 10 - - - -
02/06:00pm 28.3 S 7 8 1013.9 - - - Partly cloudy 10 - - - -
02/05:50pm 28.6 S 8 8 1013.8 - - - Partly cloudy 10 - - - -
02/05:40pm 28.4 S 8 9 1013.7 - - - Partly cloudy 10 - - - -
02/05:30pm 28.0 S 8 9 1013.6 - - - Partly cloudy 10 - - - -
02/05:20pm 28.7 S 9 9 1013.6 - - - Partly cloudy 10 - - - -
02/05:10pm 29.1 S 9 9 1013.5 - - - Partly cloudy 10 - - - -
02/05:00pm 28.9 S 10 10 1013.3 - - - Partly cloudy 10 - - - -
02/04:50pm 28.0 S 10 13 1013.1 - - - Partly cloudy 10 - - - -
02/04:40pm 28.8 S 11 11 1013.1 - - - Partly cloudy 10 - - - -
02/04:30pm 30.1 SSW 10 11 1013.1 - - - Partly cloudy 10 - - - -
02/04:20pm 30.3 S 10 10 1013.1 - - - - 10 - - - -
02/04:10pm 29.9 SSW 10 11 1013.1 - - - Partly cloudy 10 - - - -
02/04:00pm 30.1 SSW 10 13 1013.1 - - - - 10 - - - -
02/03:50pm 29.8 SSW 10 11 1013.2 - - - Partly cloudy 10 - - - -
02/03:40pm 30.0 S 11 14 1013.3 - - - - 10 - - - -
02/03:30pm 29.9 SSW 10 13 1013.4 - - - - 10 - - - -

Other Formats:

Comma delimited format used in spreadsheet applications
http://www.bom.gov.au/fwo/IDD60701/IDD60701.95100.axf

JavaScript Object Notation format (JSON) in row-major order
http://www.bom.gov.au/fwo/IDD60701/IDD60701.95100.json